星链-3247 (STARLINK-3247 )

导读 | 星芒AI

STARLINK-3247 是 SpaceX Starlink 卫星互联网项目中的第 3247 颗卫星,属于低轨卫星群的一部分。该卫星由 SpaceX 制造并发射,旨在为全球用户提供高速、低延迟的互联网服务。它运行在约 550 公里的轨道高度,采用先进的推进和通信技术,支持全球范围内的宽带接入。STARLINK-3247 的部署有助于增强 Starlink 网络的覆盖密度和稳定性,特别是在偏远和网络基础设施薄弱的地区。该卫星也体现了 SpaceX 在构建全球卫星互联网系统方面的持续进展。

基本信息
目录编号:
49747
目录名称:
STARLINK-3247
国际标识:
2021-115Z
轨道中心:
EARTH
卫星名称:
星链-3247
卫星全名:
星链-3247 (STARLINK-3247 )
卫星状态:
在轨 (已飞行1433 天)
发射日期:
2021-12-02 UTC
国别 :
美国 (US)
星等 :
--
轨道信息
数据来源 国际轨道数据
星历时间: 2025-11-02T18:53:21+0800
1天前
查看轨道信息
半长轴: 6917.893km
偏心率: 0.0001382
轨道倾角: 53.219°
近地点辐角 97.345°
升交点赤经 0.308°
平近点角 262.770°
近地点: 538.801km
远地点: 540.715km
周期: 95.438分钟
每日圈数: 15.08836
详细信息
固有亮度:
5
最大亮度:
2.5
卫星平台:
Starlink v1.5
覆盖范围:
全球
运营商:
太空探索技术公司
运营商所在国:
美国
制造商(研发单位):
太空探索技术公司
制造商所在国:
美国
使用方式:
暂无
卫星简介
星链(Starlink)计划是由太空探索技术公司(SpaceX)提出的一个巨型低轨卫星互联网星座项目,计划在2019年至2024年间在太空搭建由约1.2万颗卫星组成的“星链”网络,其中1584颗将部署在地球上空550千米处的近地轨道,并从2020年开始工作。该卫星仍在工作。
2D轨道图
3D轨道图
轨道高度分析图
轨道倾角分析图
轨道综合分析图
查看轨道综合分析图